DW8769 Cullera ES current weather conditions

sailwx.info

Wind from 019

Air temperature 22.8° C
Dewpoint 20.3° C

Last reported at 2019-Sep-20 09:01 UTC.
Time now 2019-Sep-20 09:46 UTC

Location: N 39°10' W 000°14'.
View on Google Maps.

See reports from other nearby stations

  
Tides and Currents Weather Stations Pressure Air Temp Water Temp Dewpoint Dewpoint Depression Visibility Wind Speed Wind Dir Waves Ship Positions
date/time (UTC)wind fromknots sea level pressurealtimeterstation pressurevisibilityair tempwater tempwave heightnotes
2019-Sep-20 09:01 019 22.8
2019-Sep-20 08:46 065 22.2
2019-Sep-20 08:31 348 22.2
2019-Sep-20 08:16 321 21.7
2019-Sep-20 08:00 310 1 gusting 5 21.7
2019-Sep-20 07:45 327 21.7
2019-Sep-20 07:31 292 21.7
2019-Sep-20 07:16 318 21.7
2019-Sep-20 07:01 299 21.7
2019-Sep-20 06:45 313 21.7
2019-Sep-20 06:30 309 21.1
2019-Sep-20 06:16 299 21.1
2019-Sep-20 06:00 330 21.7
2019-Sep-20 05:45 330 21.1
2019-Sep-20 05:30 326 21.1
2019-Sep-20 05:15 313 21.1
2019-Sep-20 05:00 287 21.1
2019-Sep-20 04:45 311 21.1
2019-Sep-20 04:30 310 21.1
2019-Sep-20 04:15 321 21.1
2019-Sep-20 04:01 268 21.1
2019-Sep-20 03:45 268 21.1
2019-Sep-20 03:30 275 21.1
2019-Sep-20 03:15 319 21.1
2019-Sep-20 03:00 276 21.1
2019-Sep-20 02:45 325 21.1
2019-Sep-20 02:30 310 21.7
2019-Sep-20 02:15 311 21.7
2019-Sep-20 02:00 311 21.7
2019-Sep-20 01:45 329 21.7
2019-Sep-20 01:30 350 21.7
2019-Sep-20 01:17 350 22.2
2019-Sep-20 01:02 022 22.2
2019-Sep-20 00:47 024 22.2
2019-Sep-20 00:31 023 22.2
2019-Sep-20 00:16 023 22.2
2019-Sep-20 00:01 023 22.8
2019-Sep-19 23:46 023 22.8
2019-Sep-19 23:32 023 22.8
2019-Sep-19 23:16 033 22.8
2019-Sep-19 23:01 360 22.8
2019-Sep-19 22:46 355 22.8
2019-Sep-19 22:31 355 22.8
2019-Sep-19 22:17 355 22.8
2019-Sep-19 22:01 355 22.8
2019-Sep-19 21:47 355 23.3
2019-Sep-19 21:30 355 23.3
2019-Sep-19 21:16 355 23.3
2019-Sep-19 21:01 355 23.3
2019-Sep-19 20:46 052 23.3
2019-Sep-19 20:31 073 23.3
2019-Sep-19 20:16 067 23.3
2019-Sep-19 20:01 069 23.3
2019-Sep-19 19:46 082 1 gusting 4 23.3
2019-Sep-19 19:30 081 23.3
2019-Sep-19 19:16 065 0 gusting 5 23.3
2019-Sep-19 19:00 068 23.3
2019-Sep-19 18:46 062 0 gusting 3 23.3
2019-Sep-19 18:31 075 23.9
2019-Sep-19 18:16 059 23.9
2019-Sep-19 18:01 076 23.9
2019-Sep-19 17:46 077 23.9
2019-Sep-19 17:31 072 0 gusting 6 23.9
2019-Sep-19 17:15 069 1 gusting 7 23.9
2019-Sep-19 17:01 083 3 gusting 6 23.9
2019-Sep-19 16:46 075 2 gusting 5 23.9
2019-Sep-19 16:30 073 5 gusting 8 23.9
2019-Sep-19 16:16 087 2 gusting 6 23.9
2019-Sep-19 16:00 073 3 gusting 8 23.9
2019-Sep-19 15:46 089 3 gusting 6 24.4
2019-Sep-19 15:31 076 2 gusting 6 24.4
2019-Sep-19 15:16 083 1 gusting 6 24.4
2019-Sep-19 15:01 074 2 gusting 6 24.4
2019-Sep-19 14:46 088 3 gusting 6 24.4
2019-Sep-19 14:30 089 4 gusting 7 24.4
2019-Sep-19 14:15 092 4 gusting 6 24.4
2019-Sep-19 14:00 105 25.0
2019-Sep-19 13:46 042 1 gusting 6 25.0
2019-Sep-19 13:30 053 1 gusting 6 24.4
2019-Sep-19 13:15 080 2 gusting 7 24.4
2019-Sep-19 13:00 082 4 gusting 8 24.4
2019-Sep-19 12:45 063 2 gusting 7 24.4
2019-Sep-19 12:30 061 2 gusting 8 24.4
2019-Sep-19 12:15 051 0 gusting 6 25.0
2019-Sep-19 12:00 074 2 gusting 6 25.0
2019-Sep-19 11:45 074 2 gusting 6 25.0
2019-Sep-19 11:30 063 1 gusting 6 25.0
2019-Sep-19 11:15 067 1 gusting 6 24.4
2019-Sep-19 11:00 054 0 gusting 6 24.4
2019-Sep-19 10:45 084 1 gusting 6 25.0
2019-Sep-19 10:30 067 2 gusting 6 25.0
2019-Sep-19 10:15 096 0 gusting 6 25.0
2019-Sep-19 10:00 094 25.6
2019-Sep-19 09:45 074 25.0
2019-Sep-19 09:32 338 24.4
2019-Sep-19 09:18 273 23.9
2019-Sep-19 09:01 338 2 gusting 6 23.3
2019-Sep-19 08:46 254 0 gusting 6 23.3
2019-Sep-19 08:31 297 3 gusting 8 22.8
2019-Sep-19 08:17 355 3 gusting 6 22.8
2019-Sep-19 08:02 347 2 gusting 7 22.2
2019-Sep-19 07:45 277 21.7
2019-Sep-19 07:30 333 21.1
2019-Sep-19 07:15 211 21.1
2019-Sep-19 07:00 340 1 gusting 6 20.6
2019-Sep-19 06:45 274 20.6
2019-Sep-19 06:30 294 20.6
2019-Sep-19 06:15 304 20.6
2019-Sep-19 06:00 304 21.1
2019-Sep-19 05:45 304 21.1
2019-Sep-19 05:30 304 21.1
2019-Sep-19 05:15 304 21.1
2019-Sep-19 05:01 304 21.1
2019-Sep-19 04:47 304 21.1
2019-Sep-19 04:32 304 21.7
2019-Sep-19 04:18 304 21.7
2019-Sep-19 04:02 304 21.7
2019-Sep-19 03:46 304 21.7
2019-Sep-19 03:31 304 21.7
2019-Sep-19 03:17 304 21.7
2019-Sep-19 03:01 304 21.7
2019-Sep-19 02:46 304 21.7
2019-Sep-19 02:31 304 21.7
2019-Sep-19 02:18 327 21.7
2019-Sep-19 02:01 327 22.2
2019-Sep-19 01:46 327 22.2
2019-Sep-19 01:32 327 22.2
2019-Sep-19 01:16 327 22.2
2019-Sep-19 01:01 327 22.2
2019-Sep-19 00:46 327 22.2
2019-Sep-19 00:31 327 22.2
2019-Sep-19 00:16 326 22.2
2019-Sep-19 00:01 288 22.2
2019-Sep-18 23:48 269 22.2
2019-Sep-18 23:31 315 22.2
2019-Sep-18 23:17 315 22.2
2019-Sep-18 23:01 315 22.8
2019-Sep-18 22:46 315 22.8
2019-Sep-18 22:31 324 22.8
2019-Sep-18 22:16 319 22.8
2019-Sep-18 22:02 348 22.8
2019-Sep-18 21:45 263 23.3
2019-Sep-18 21:31 051 23.3
2019-Sep-18 21:16 051 23.3
2019-Sep-18 21:00 052 23.3
2019-Sep-18 20:45 052 23.9
2019-Sep-18 20:31 052 24.4
2019-Sep-18 20:15 052 24.4
2019-Sep-18 20:01 076 24.4
2019-Sep-18 19:45 084 24.4
2019-Sep-18 19:30 034 24.4
2019-Sep-18 19:15 066 25.0
2019-Sep-18 19:00 071 25.0
2019-Sep-18 18:45 071 25.0
2019-Sep-18 18:31 083 25.0
2019-Sep-18 18:15 073 0 gusting 7 25.0
2019-Sep-18 18:00 101 25.0
2019-Sep-18 17:45 084 25.0
2019-Sep-18 17:30 082 25.6
2019-Sep-18 17:16 157 25.0
2019-Sep-18 17:01 138 1 gusting 4 25.6
2019-Sep-18 16:45 200 25.6
2019-Sep-18 16:30 165 25.6
2019-Sep-18 16:15 155 25.6
2019-Sep-18 16:00 147 0 gusting 6 25.6
2019-Sep-18 15:45 161 1 gusting 5 26.1
2019-Sep-18 15:31 136 2 gusting 6 26.1
2019-Sep-18 15:15 151 0 gusting 5 26.1
2019-Sep-18 15:00 146 0 gusting 6 26.1
2019-Sep-18 14:45 130 2 gusting 6 26.7
2019-Sep-18 14:30 090 26.7
2019-Sep-18 14:15 101 0 gusting 9 26.7
2019-Sep-18 14:00 153 26.1
2019-Sep-18 13:45 067 26.1
2019-Sep-18 13:30 103 26.1
2019-Sep-18 13:15 088 25.6
2019-Sep-18 13:00 107 1 gusting 11 25.0
2019-Sep-18 12:45 120 3 gusting 7 25.0
2019-Sep-18 12:30 118 4 gusting 7 25.6
2019-Sep-18 12:15 096 25.6
2019-Sep-18 12:00 111 0 gusting 7 25.6
2019-Sep-18 11:45 049 26.1
2019-Sep-18 11:30 111 2 gusting 8 25.0
2019-Sep-18 11:17 110 5 gusting 9 25.0
2019-Sep-18 11:01 129 3 gusting 9 25.0
2019-Sep-18 10:46 117 5 gusting 8 25.6
2019-Sep-18 10:31 108 25.0
2019-Sep-18 10:16 123 1 gusting 4 25.6
2019-Sep-18 10:02 094 1 gusting 5 25.0
2019-Sep-18 09:46 088 0 gusting 4 25.6
2019-Sep-18 09:31 093 25.6
2019-Sep-18 09:16 052 25.6
2019-Sep-18 09:01 043 25.6